User: anonymous   Login
Location: Unspecified
(0.0000°N, 0.0000°E)
Time: 10:25:42
(UTC+00:00)
Language:

GONETS M03 - Orbit

View from above orbital plane
View from above orbital plane
View from above satellite
View from above satellite

Ground track
Ground track

The orbit data is extracted from the following two-line orbital elements,

1 38734U 12041B   17080.89407164 +.00000024 +00000-0 +10000-3 0  9998
2 38734 082.4796 017.8212 0017692 209.5936 150.4147 12.42895966210910
Epoch (UTC): 21 March 2017 21:27:27
Eccentricity: 0.0017692
inclination: 82.4796°
perigee height: 1480 km
apogee height: 1508 km
right ascension of ascending node: 17.8212°
argument of perigee: 209.5936°
revolutions per day: 12.42895966
mean anomaly at epoch: 150.4147°
orbit number at epoch: 21091

The dashed part of the orbit path shows where the satellite is in the earth's shadow,  

DLR